User: anonymous   Login
Location: Unspecified
(0.0000°N, 0.0000°E)
Time: 08:38:46
(UTC+00:00)
Language:

GOES 7 - Orbit

View from above orbital plane
View from above orbital plane
View from above satellite
View from above satellite

Ground track
Ground track

The orbit data is extracted from the following two-line orbital elements,

1 17561U 87022A   18019.51115781 -.00000016 +00000-0 +00000-0 0  9995
2 17561 015.1341 003.5652 0007857 306.8452 240.9946 00.99891147096303
Epoch (UTC): 19 January 2018 12:16:04
Eccentricity: 0.0007857
inclination: 15.1341°
perigee height: 35860 km
apogee height: 35926 km
right ascension of ascending node: 3.5652°
argument of perigee: 306.8452°
revolutions per day: 0.99891147
mean anomaly at epoch: 240.9946°
orbit number at epoch: 9630

The dashed part of the orbit path shows where the satellite is in the earth's shadow,  

DLR